{"data":{"norad_id":51995,"epoch":"2026-09-20T03:01:23.814048Z","epoch_age_seconds":87762,"freshness":"FRESH","line1":"1 51995U 22025AR  26263.12597007  .00000148  00000+0  16543-4 0  9995","line2":"2 51995  53.1590 212.6609 0001213  95.3386 264.7754 15.31697716250447","mean_motion":15.31697716,"eccentricity":0.0001213,"inclination_deg":53.159,"raan_deg":212.6609,"arg_perigee_deg":95.3386,"mean_anomaly_deg":264.7754,"bstar":1.6543e-5,"rev_number":25044,"period_min":94.013328149404,"perigee_km":469.91603411387,"apogee_km":471.57757332465,"semimajor_km":6848.8838037193,"source":"CELESTRAK","updated_at":"2026-09-20T09:00:39.982352Z"}}